Location: Newark
(45.8378°N, 5.5389°E)
Time: 21:00:03
(UTC+00:00)

YUBILEINY - Pass Details

Date: 18 December 2019
Orbit: 1478 x 1509 km, 82.5° (Epoch: 28 January)

Event Time Altitude Azimuth Distance (km) Brightness Sun altitude
Rises 04:52:17 0° 357° (N) 4,611 ? -23.6°
Reaches altitude 10° 04:56:49 10° 17° (NNE) 3,628 ? -22.9°
Maximum altitude 05:01:52 16° 54° (NE) 3,155 ? -22.0°
Drops below altitude 10° 05:06:53 10° 90° (E) 3,625 ? -21.1°
Sets 05:11:21 0° 110° (ESE) 4,605 ? -20.4°
